Location: Sommers-Bausch Observatory
(40.0037°N, 105.2635°W)
Time: 13:28:33
(UTC-06:00)

Daily predictions for brighter satellites

Satellite Brightness Start Highest point End
(mag) Time Altitude Azimuth Time Altitude Azimuth Time Altitude Azimuth
NOSS 3-2 (A) 3.4 20:36:06 10° SSW 20:41:49 62° ESE 20:48:08 10° NE
SL-16 R/B 3.3 20:38:45 10° N 20:43:39 29° ENE 20:48:32 10° ESE
USA 234 3.4 20:37:52 10° NE 20:44:17 53° SE 20:50:40 10° SSW
ATLAS CENTAUR R/B 4.0 20:40:21 10° S 20:45:51 53° ESE 21:01:31 10° NE
NOSS 3-2 (C) 3.6 20:41:44 10° S 20:47:18 48° ESE 20:53:23 10° NE
Cosmos 1536 4.4 20:44:00 10° NNW 20:47:48 39° W 20:51:36 10° SSW
Cosmos 1898 Rocket 4.3 20:48:26 10° N 20:53:20 37° ENE 20:58:14 10° SE
Cosmos 2151 Rocket 4.5 20:49:24 10° NNW 20:53:44 52° W 20:58:00 10° S
Cosmos 1300 Rocket 3.8 20:50:49 10° NNW 20:55:11 73° W 20:59:29 10° S
H-2A R/B 3.5 20:51:42 10° ESE 20:55:18 21° ENE 20:58:59 10° NNE
Cosmos 1864 Rocket 4.5 20:50:50 10° S 20:56:58 80° E 21:03:07 10° N
YAOGAN 6 3.3 20:55:03 10° S 20:58:42 58° W 21:02:20 10° NNW
Cosmos 304 Rocket 3.8 20:55:46 10° SSW 21:00:34 87° ESE 21:05:25 10° NNE
Cosmos 2208 Rocket 4.0 20:55:31 10° S 21:00:37 65° ESE 21:05:46 10° NNE
Cosmos 1975 3.2 20:57:14 10° N 21:01:09 46° E 21:05:01 10° SSE
ISS -2.6 20:58:44 10° WSW 21:01:53 45° NNW 21:05:03 10° NE
COSMOS 2487 3.7 20:58:40 10° SW 21:02:01 45° WNW 21:05:25 10° N
Atlas Centaur 2 2.8 21:00:05 10° SW 21:02:49 18° S 21:05:16 10° SE
Abrixas rocket 2.1 21:02:33 10° SW 21:05:46 85° SSE 21:09:00 10° ENE
ATLAS CENTAUR R/B 2.4 21:01:22 10° NW 21:05:47 49° WSW 21:10:25 10° SSE
Cosmos 1242 Rocket 3.3 21:05:15 10° N 21:08:40 36° ENE 21:11:36 12° SE
CENTAUR R/B 3.1 21:05:41 10° S 21:10:43 31° ESE 21:16:20 10° NE
Cosmos 1500 4.5 21:08:07 10° NNW 21:11:48 42° W 21:15:27 10° SSW
Cosmos 1697 Rocket 4.4 21:09:52 10° NW 21:14:43 30° WSW 21:19:32 10° SSW
Tiangong 2 1.1 21:14:49 10° WSW 21:17:57 82° NNW 21:21:07 10° ENE
Timation 2 Rocket 3.8 21:12:09 10° SSW 21:18:03 72° ESE 21:24:06 10° NNE
USA 186 4.0 21:18:05 10° SSW 21:20:46 24° W 21:23:33 10° NW
ATLAS 3B R/B 3.6 21:16:36 10° SW 21:23:38 55° NW 21:30:25 10° NNE
Aureole 2 Rocket 4.1 21:22:48 10° NNE 21:24:33 15° ENE 21:25:34 13° E
Cosmos 2360 Rocket 3.5 21:20:37 10° N 21:25:19 26° NE 21:29:12 13° ESE
Meteor 1-12 Rocket 4.4 21:19:26 10° N 21:25:24 76° E 21:31:25 10° SSE
Cosmos 1666 2.6 21:22:41 10° N 21:26:36 82° E 21:30:08 12° S
deb Kosmos-1763 4.0 21:23:43 10° SSW 21:27:25 88° ESE 21:31:09 10° NNE
Cosmos 1980 Rocket 3.3 21:22:50 10° NW 21:28:07 41° WSW 21:33:24 10° S
ERS-2 3.8 21:25:37 10° SSW 21:28:56 32° W 21:32:18 10° NNW
Cosmos 292 Rocket 4.4 21:26:54 10° SSE 21:31:11 35° ESE 21:35:30 10° NE
ELECTRON R/B 4.3 21:29:44 10° N 21:32:10 86° W 21:33:38 21° S
Cosmos 1743 2.7 21:32:42 10° N 21:36:33 81° W 21:39:47 14° S
Meteor 2-9 Rocket 4.3 21:32:35 10° N 21:37:49 54° ENE 21:41:38 19° SSE
Shenzhou-11 Module 2.6 21:37:42 10° WNW 21:40:38 51° N 21:42:34 18° E
Iridium 2 3.6 21:40:34 13° S 21:43:56 84° E 21:47:47 10° N
Cosmos 1455 Rocket 3.4 21:40:44 10° N 21:44:58 47° E 21:47:16 24° SE
Lacrosse 5 rocket 3.2 21:41:40 10° NNW 21:45:09 23° NNE 21:48:08 12° E
Spot 2 Rocket 4.4 21:40:49 10° S 21:45:39 46° W 21:50:29 10° NNW
Cosmos 2333 Rocket 4.4 21:45:39 10° NNE 21:47:40 12° NE 21:49:41 10° ENE
Cosmos 2298 Rocket 4.1 21:43:32 10° NNW 21:48:49 64° ENE 21:52:03 23° SE
MetOp-A 4.1 21:46:59 17° SSE 21:51:07 86° ENE 21:56:30 10° NNW
Cosmos 1937 Rocket 3.4 21:47:39 10° NNW 21:52:49 88° ENE 21:56:07 23° SSE
Cosmos 540 Rocket 4.0 21:50:48 22° SSE 21:53:26 37° ESE 21:58:11 10° NE
Cosmos 1975 Rocket 3.7 21:50:14 10° SSW 21:54:28 56° W 21:58:44 10° N
Meteor 2-4 Rocket 3.6 21:52:32 10° S 21:57:56 84° E 22:03:32 10° N
Cosmos 1763 Rocket 3.7 21:53:17 10° SSW 21:58:36 76° WNW 22:03:54 10° NNE
Cosmos 1833 4.3 21:53:16 10° S 21:58:53 59° ESE 22:04:28 10° NNE
USA 32 4.0 21:55:27 10° N 22:00:43 78° E 22:04:03 23° S
Cosmos 841 Rocket 3.4 21:58:04 10° SSW 22:03:18 82° ESE 22:08:36 10° NNE
SL-08 RB Rocket 3.7 22:05:13 25° S 22:07:48 80° WSW 22:12:23 10° NNW
Meteor 2-20 4.5 22:01:42 10° N 22:07:51 82° W 22:12:21 20° S
Cosmos 1515 3.7 22:08:08 39° SSE 22:09:22 63° E 22:13:10 10° NNE
Cosmos 1340 Rocket 2.8 22:07:29 22° S 22:10:02 85° W 22:14:08 10° N
Helios 1A 3.2 22:09:04 36° SE 22:10:24 52° ENE 22:14:28 10° N
CZ-4C R/B 4.0 22:04:18 10° NNW 22:10:34 32° NE 22:16:04 15° E
Meteor 2-20 Rocket 4.4 22:05:48 10° N 22:11:58 83° E 22:15:44 25° S
Landsat 7 4.5 22:10:22 30° ESE 22:12:00 40° ENE 22:16:27 10° N
Cosmos 1544 Rocket 3.6 22:07:45 10° N 22:12:12 82° W 22:14:22 30° S
Cosmos 2322 4.2 22:10:29 10° NNW 22:16:01 48° ENE 22:18:28 30° ESE
Resurs 01 Rocket 4.3 22:16:48 10° WSW 22:18:50 13° W 22:20:54 10° WNW
Cosmos 2322 Rocket 2.8 22:13:44 10° NNW 22:19:09 51° WSW 22:22:27 23° S
ARGOS 3.8 22:15:41 18° S 22:19:34 52° W 22:24:52 10° NNW
SPOT 5 2.7 22:19:27 41° SE 22:20:50 65° ENE 22:25:20 10° N
Centaur D-1A AC-31 3.3 22:20:01 10° SW 22:21:08 12° SSW 22:21:08 12° SSW
Cosmos 2237 Rocket 4.5 22:20:01 10° NNE 22:22:16 12° NE 22:24:32 10° ENE
Okean 2 3.6 22:25:40 47° ESE 22:26:05 49° E 22:30:08 10° NNE
SJ 16-02 1.7 22:21:55 10° N 22:26:15 50° ENE 22:27:11 42° ESE
Cosmos 1356 3.9 22:25:40 35° SW 22:26:53 59° WNW 22:30:19 10° N
USA 234 4.3 22:20:58 10° NE 22:27:12 48° NNW 22:33:26 10° WSW
Cosmos 1536 Rocket 3.5 22:25:46 32° SSW 22:27:46 84° W 22:32:15 10° N
SL-16 R/B 3.2 22:22:34 10° NW 22:27:51 40° WSW 22:31:11 21° SSW
ERS-1 Rocket 3.3 22:27:48 29° S 22:30:19 61° W 22:35:19 10° NNW
SPOT 1/Viking Rocket 3.5 22:28:35 39° SSE 22:30:34 79° ENE 22:35:45 10° N
Terra 2.4 22:29:39 35° ESE 22:30:44 41° ENE 22:35:12 10° N
H-2A R/B 2.8 22:31:36 22° SSW 22:34:23 44° W 22:39:12 10° NNW
BREEZE M DEB (TANK) 2.6 22:29:01 10° WNW 22:36:38 57° SW 22:37:12 51° S
Cosmos 1356 Rocket 3.6 22:37:39 53° ESE 22:37:48 53° E 22:42:00 10° NNE
Cosmos 1092 Rocket 4.4 22:32:04 10° N 22:38:11 48° ENE 22:40:11 36° ESE
ISS -0.6 22:37:15 10° NW 22:39:01 14° NNW 22:40:46 10° NNE
Meteor 1-29 3.5 22:36:24 10° NNE 22:39:13 48° NE 22:39:13 48° NE
Nadezhda 4 Rocket 4.0 22:35:30 10° N 22:41:49 75° E 22:44:16 40° SSE
Meteor 1-15 Rocket 4.2 22:36:46 10° N 22:42:31 83° W 22:44:42 40° S
Helios 1B rocket 2.3 22:40:09 10° NNE 22:44:18 89° WNW 22:45:02 60° SSW
Cosmos 2219 3.7 22:44:48 38° ESE 22:45:02 38° ESE 22:50:19 10° NE
Cosmos 2237 4.2 22:39:20 10° NNW 22:45:06 80° ENE 22:46:51 47° SE
Cosmos 1125 Rocket 3.5 22:43:33 10° NNW 22:48:48 70° ENE 22:49:57 52° SE
Spot 1 3.8 22:50:30 75° ESE 22:50:46 79° ENE 22:54:50 10° N
IGS 5A 3.3 22:50:56 74° ESE 22:51:11 78° ENE 22:55:21 10° N
Tiangong 2 2.3 22:51:48 10° WNW 22:54:20 42° NNW 22:54:20 42° NNW
CARTOSAT-1 3.4 22:59:35 77° S 22:59:52 86° WSW 23:04:13 10° NNW
CENTAUR R/B 3.5 22:55:15 10° WSW 23:01:01 47° NW 23:07:40 10° NNE
Cosmos 1544 3.9 23:00:48 10° N 23:03:40 44° NE 23:03:40 44° NE
Cosmos 2026 Rocket 4.2 23:02:55 10° N 23:08:55 51° ENE 23:10:02 46° ESE
Cosmos 2360 Rocket 2.9 23:04:09 10° NW 23:09:30 45° WSW 23:10:59 37° SW
Cosmos 2333 4.1 23:03:57 10° NNW 23:09:38 78° ENE 23:10:42 59° SE
Cosmos 2279 Rocket 4.5 23:10:53 40° ESE 23:11:32 41° E 23:17:18 10° NNE
Cosmos 2219 Rocket 2.4 23:08:53 10° NNW 23:14:23 56° ENE 23:15:18 50° E
CZ-2C R/B 2.7 23:08:58 10° NNE 23:14:32 59° E 23:14:59 57° ESE
Cosmos 1025 Rocket 3.5 23:15:30 49° WSW 23:16:04 53° W 23:20:21 10° N
Cosmos 2142 Rocket 4.4 23:18:42 57° SE 23:19:47 69° E 23:25:57 10° NNE
Cosmos 1606 Rocket 3.8 23:15:23 10° N 23:19:27 62° NE 23:19:27 62° NE
YAOGAN 11 4.2 23:23:02 71° W 23:23:02 71° W 23:27:31 10° NNW
Lacrosse 5 rocket 2.1 23:20:32 10° NW 23:23:47 45° W 23:23:47 45° W
Cosmos 2333 Rocket 2.2 23:27:18 10° NNW 23:33:00 70° ENE 23:33:37 64° ESE
Cosmos 1627 Rocket 4.3 23:27:23 10° N 23:33:35 89° E 23:34:35 65° S
COSMOS 2428 2.7 23:30:27 10° NNW 23:36:07 69° WSW 23:36:36 65° SW
Cosmos 2195 Rocket 4.4 23:30:20 10° N 23:36:29 83° W 23:37:32 63° S
SL-16 R/B 4.1 23:34:39 10° N 23:38:40 19° NE 23:40:44 16° E
Cosmos 1634 Rocket 4.1 23:37:30 49° SSW 23:39:13 71° W 23:45:33 10° N
Cosmos 1428 Rocket 4.3 23:34:45 10° N 23:40:52 71° E 23:41:34 65° SE
H-2A R/B 4.0 23:47:27 21° ENE 23:47:27 21° ENE 23:50:16 10° NNE
CZ-2C R/B 3.6 23:47:35 48° WSW 23:48:04 49° W 23:53:28 10° NNW
Cosmos 1980 3.9 23:43:39 10° NNW 23:49:13 56° ENE 23:49:39 55° E
Cosmos 1892 Rocket 4.2 23:54:23 54° NW 23:54:23 54° NW 23:57:59 10° N
